Cosmos 1844 - Orbit

View from above orbital plane
View from above orbital plane
View from above satellite
View from above satellite

Ground track
Ground track

The orbit data is extracted from the following two-line orbital elements,

1 17973U 87041A   13145.15771369  .00000262  00000-0  16275-3 0  4731
2 17973 070.8985 160.8444 0031429 195.8710 225.9555 14.13863088343378
Epoch (UTC): 25 May 2013 03:47:06
Eccentricity: 0.0031429
inclination: 70.8985°
perigee height: 823 km
apogee height: 869 km
right ascension of ascending node: 160.8444°
argument of perigee: 195.8710°
revolutions per day: 14.13863088
mean anomaly at epoch: 225.9555°
orbit number at epoch: 34337

The dashed part of the orbit path shows where the satellite is in the earth's shadow,  

Developed and maintained by Chris Peat, Heavens-Above GmbH. Please read the updated FAQ before sending e-mail. Imprint. DLR